Location: *
(1.3500°S, 147.5000°W)
Time: 04:25:55
(UTC+00:00)

Envisat - Pass Details

Date: 01 July 2021
Orbit: 764 x 766 km, 98.2° (Epoch: 03 August)

Event Time Altitude Azimuth Distance (km) Brightness Sun altitude
Rises 14:10:43 0° 30° (NNE) 3,213 7.1 -24.2°
Reaches altitude 10° 14:13:14 10° 40° (NE) 2,290 6.3 -23.6°
Maximum altitude 14:17:41 32° 102° (ESE) 1,298 4.6 -22.6°
Drops below altitude 10° 14:22:08 10° 164° (SSE) 2,299 5.4 -21.6°
Enters shadow 14:24:37 - 174° (S) 3,212 6.0 -21.0°
